Location: Strohbehn Observatory
(42.4649°N, 93.8239°W)
Time: 07:15:02
(UTC-06:00)

Daily predictions for brighter satellites

Satellite Brightness Start Highest point End
(mag) Time Altitude Azimuth Time Altitude Azimuth Time Altitude Azimuth
CZ-4 R/B 1.7 17:42:38 10° S 17:46:29 71° W 17:50:24 10° NNW
ALOS 4.1 17:47:28 10° ENE 17:48:16 10° ENE 17:49:05 10° NE
Cosmos 2333 Rocket 2.2 17:44:00 10° SSW 17:49:36 71° ESE 17:55:15 10° NNE
Cosmos 1743 Rocket 3.7 17:45:21 10° S 17:49:49 86° W 17:54:20 10° N
IDEFIX/ARIANE 42P 2.9 17:44:56 10° S 17:50:08 74° WSW 17:55:24 10° NNW
Cosmos 1328 Rocket 3.9 17:46:13 10° NNW 17:50:41 76° W 17:55:06 10° S
Cosmos 2219 Rocket 2.3 17:45:11 10° SSW 17:50:50 89° WNW 17:56:31 10° NNE
Cosmos 1626 3.9 17:52:30 10° ESE 17:54:27 14° E 17:56:24 10° NE
Meteor 2-2 Rocket 4.4 17:51:37 10° NNW 17:57:16 79° W 18:02:54 10° S
MONITOR-E 4.3 17:54:19 10° SSE 17:57:23 52° ENE 18:00:30 10° N
Cosmos 1151 Rocket 3.0 17:53:30 10° N 17:57:45 64° E 18:02:01 10° SSE
Aureole 2 Rocket 3.3 17:56:15 10° S 17:59:42 38° ESE 18:03:27 10° NE
SJ-6B 4.3 17:56:53 10° ESE 17:59:47 19° ENE 18:02:42 10° NNE
Cosmos 1515 Rocket 3.8 17:56:49 10° N 18:01:18 79° W 18:05:43 10° S
Cosmos 2278 Rocket 2.2 17:55:35 10° NNW 18:01:18 76° ENE 18:06:58 10° SSE
Cosmos 371 Rocket 3.4 17:57:03 10° SSW 18:01:51 79° WNW 18:06:41 10° NNE
Cosmos 1703 4.4 17:59:34 10° SE 18:02:40 23° E 18:05:47 10° NE
Cosmos 1674 4.4 18:01:20 10° SW 18:04:51 35° WNW 18:08:26 10° N
Cosmos 1455 3.7 18:02:52 10° NNE 18:05:19 16° ENE 18:07:46 10° ESE
SMAP 3.8 18:01:15 10° S 18:05:50 57° W 18:10:27 10° NNW
SKYMED 2 3.7 18:03:52 10° NNE 18:08:07 52° E 18:12:20 10° S
Cosmos 1805 Rocket 4.4 18:04:45 10° SSE 18:08:39 31° E 18:12:35 10° NNE
Cosmos 1726 2.1 18:05:23 10° N 18:09:10 85° ENE 18:12:57 10° S
Lacrosse 4 Rocket 3.1 18:09:24 10° NNE 18:11:35 14° NE 18:12:09 14° NE
Cosmos 372 Rocket 3.9 18:07:20 10° NNW 18:12:27 75° ENE 18:17:33 10° SSE
Cosmos 1500 Rocket 4.1 18:11:24 10° SSW 18:15:40 62° W 18:20:00 10° N
Meteor 1-27 4.2 18:12:52 10° N 18:18:42 71° E 18:24:31 10° SSE
FREGAT/IRIS 3.9 18:17:19 10° ESE 18:19:43 21° ENE 18:22:08 10° NNE
Cosmos 540 Rocket 3.5 18:14:40 10° SSW 18:19:51 85° WNW 18:25:03 10° NNE
Cosmos 2084 4.4 18:18:04 10° WSW 18:21:43 38° NW 18:25:17 10° NNE
Cosmos 44 Rocket 4.3 18:18:40 10° SW 18:23:36 47° NW 18:28:28 10° NNE
Cosmos 1300 3.2 18:21:13 10° NNW 18:25:02 62° W 18:28:49 10° S
Abrixas 2.3 18:22:56 10° WSW 18:25:52 89° NNW 18:27:16 27° ENE
Sich 1 3.8 18:22:09 10° SSE 18:26:02 30° E 18:29:41 11° NNE
Cosmos 2237 Rocket 2.3 18:20:28 10° SSW 18:26:05 77° WNW 18:31:46 10° NNE
Cosmos 1340 Rocket 2.7 18:22:50 10° S 18:26:44 64° E 18:30:38 10° NNE
SL-14 R/B 3.6 18:23:54 10° SSW 18:27:48 69° W 18:31:48 10° N
USA 215 3.3 18:22:16 10° ESE 18:28:40 59° NNE 18:35:05 10° NW
Cosmos 2369 Rocket 4.0 18:27:12 10° NNE 18:29:27 13° NE 18:29:27 13° NE
NOSS 0 Rocket 4.3 18:24:13 10° SW 18:30:23 65° WNW 18:36:35 10° NNE
Cosmos 1484 Rocket 3.4 18:26:56 10° S 18:30:49 60° W 18:34:46 10° NNW
Cosmos 2058 2.9 18:27:08 10° S 18:31:14 88° W 18:35:22 10° N
Cosmos 1461 3.1 18:27:17 10° SSW 18:31:19 48° ESE 18:33:36 23° NE
SL-16 R/B 2.3 18:27:34 10° S 18:33:02 53° ESE 18:37:58 13° NE
Cosmos 1633 Rocket 3.7 18:29:35 10° SSE 18:33:30 32° E 18:36:07 17° NE
Cosmos 304 Rocket 3.7 18:35:45 10° SSW 18:40:33 75° ESE 18:45:06 11° NNE
BREEZE-M DEB (TANK) 1.7 18:41:12 10° SW 18:43:32 76° SSE 18:44:01 52° ENE
Cosmos 2297 3.6 18:38:15 10° NNW 18:43:59 79° ENE 18:49:43 10° SSE
Lacrosse 5 3.9 18:45:10 10° NW 18:48:09 15° N 18:50:06 13° NNE
Meteor 1-28 Rocket 3.3 18:45:49 10° N 18:49:31 73° WNW 18:53:13 10° SSW
BREEZE-M DEB (TANK) 1.9 18:49:13 10° W 18:51:35 42° NNW 18:51:39 42° NNW
Cosmos 1356 Rocket 3.2 18:48:56 10° S 18:52:54 67° E 18:55:25 21° NNE
Cosmos 1900 4.3 18:50:35 10° NNW 18:55:35 88° ENE 19:00:35 10° SSE
COSMO-SKYMED 1 3.6 18:51:58 10° N 18:56:08 46° WNW 19:00:17 10° SW
Cosmos 1707 Rocket 3.4 18:52:21 10° N 18:56:43 88° E 19:01:03 10° S
CZ-3A R/B 2.7 18:52:51 10° NW 18:57:39 73° NE 19:01:31 20° ESE
Aureole 1 Rocket 4.0 18:55:34 10° S 19:00:41 51° E 19:05:29 18° NNE
CZ-4C R/B 4.4 18:58:15 10° NNW 19:01:58 15° NNE 19:03:00 15° NNE
Spot 2 Rocket 3.6 18:59:08 10° SE 19:03:59 50° ENE 19:08:52 10° N
Resurs 01 Rocket 1.7 19:03:50 41° ESE 19:04:52 50° ENE 19:09:10 10° N
Lacrosse 5 rocket 2.9 19:02:50 10° WNW 19:06:17 32° SW 19:09:53 10° SSE
Cosmos 1184 Rocket 3.1 19:03:56 10° S 19:06:41 56° SSE 19:06:41 56° SSE
CENTAUR R/B 4.4 19:02:31 10° W 19:07:37 24° NNW 19:13:14 10° NNE
Cosmos 1666 Rocket 3.5 19:03:23 10° S 19:07:44 87° WNW 19:11:29 14° N
FENGYUN 3A 3.6 19:04:05 10° SSE 19:09:20 61° ENE 19:14:39 10° N
USA 229 DEB 3.8 19:03:04 10° SSW 19:09:39 53° ESE 19:12:14 36° ENE
USA 229 3.8 19:03:11 10° SSW 19:09:46 52° ESE 19:12:16 36° ENE
BREEZE M DEB (TANK) 2.9 19:08:03 10° WNW 19:09:43 33° WSW 19:09:43 33° WSW
METEOR-M 4.5 19:09:10 10° S 19:14:29 66° WSW 19:19:50 10° NNW
Cosmos 1538 Rocket 4.1 19:12:13 10° SSW 19:17:30 77° WNW 19:21:10 21° NNE
Iridium 4 Rocket 2.9 19:15:01 10° S 19:19:31 73° E 19:19:42 72° ENE
ATLAS 5 CENTAUR R/B 4.0 19:20:48 10° N 19:23:24 17° NNE 19:23:24 17° NNE
ALOS 2.1 19:20:16 10° SSE 19:24:56 87° E 19:29:38 10° NNW
Cosmos 923 Rocket 4.1 19:20:11 10° S 19:24:48 55° SE 19:24:48 55° SE
FengYun 1-2 T 4.1 19:22:42 10° SSE 19:28:17 88° WSW 19:33:50 10° NNW
Cosmos 1626 3.6 19:25:59 10° SW 19:29:29 37° WNW 19:31:36 20° NNW
Cosmos 1680 Rocket 4.5 19:27:32 10° S 19:30:32 32° SSE 19:30:32 32° SSE
SJ-6B 4.4 19:30:23 10° SSW 19:34:10 37° W 19:38:02 10° NNW
Cosmos 2333 Rocket 4.4 19:30:20 10° W 19:34:26 20° NW 19:38:33 10° N
Cosmos 1603 3.7 19:31:59 10° S 19:36:59 62° SE 19:36:59 62° SE
Cosmos 2242 Rocket 3.9 19:33:43 10° NNW 19:38:06 64° W 19:42:28 10° S
Cosmos 1455 3.9 19:37:42 10° NNW 19:41:08 33° W 19:44:34 10° SSW
Cosmos 1943 Rocket 4.4 19:38:57 10° N 19:39:22 12° N 19:39:22 12° N
Cosmos 2026 Rocket 4.3 19:43:10 10° S 19:47:47 51° SSE 19:47:47 51° SSE
Lacrosse 4 Rocket 3.1 19:46:42 10° NNW 19:48:33 26° NW 19:48:33 26° NW
USA 215 4.1 20:08:59 29° S 20:11:46 44° SW 20:18:00 10° WNW
Cosmos 2369 Rocket 3.9 20:09:10 10° NNW 20:11:17 23° NNW 20:11:17 23° NNW
SL-16 R/B 4.1 20:12:50 10° WSW 20:17:27 25° NW 20:19:54 19° NNW
Resurs 01 Rocket 4.4 20:41:21 16° W 20:41:37 16° W 20:44:20 10° NW
